Startseite
Über Mich
AHP4
Galerie
Sehschlangen
Tourenbuch
Bookmarks
Elektronik
Bewertung
Geschichten
[Tagesmessung] [Jahreswerte] [Information]

Messwerte vom 25.01.2022

Die letzten Messwerte von 23:58:47 Uhr:
KategorieMesswert
Temperatur [°C]2
Luftdruck [mBar]1015
Sonneneinstrahlung0
Wind [km/h]1 aus West
Niederschlag [l/m²]0
rel.Luftfeucht.96.6%
CO2 [ppm]522

Diagramme
Messwerte vom 25.01.2022
Tagesaggregation
KategorieMinimumMaximumSchnittSumme
Temperatur [°C]273.3479
Luftdruck [mBar]101410181016.3771
Sonneneinstrahlung22558.8146
Wind [km/h]16
rF [%]92.596.696.45
Niederschlag [l/m²]0.2575
CO2 [ppm]403694569.3
Einordnung alsKalter Tag

Messungen an benachbarten Tagen: Zur Jahresaggregation 2022
Tabelle aller Messwerte
UhrzeitTemperatur [°C]Luftdruck [mBar]SonneWind [km/h]RichtungRegen [l/m²]rF [%]CO2 [ppm]
00:01:46 4 1017 0 0 W 0 96.6 597
00:04:46 4 1017 0 0 S 0 96.6 601
00:07:47 4 1017 0 0 S 0 96.6 603
00:10:46 4 1017 0 0 O 0 96.6 606
00:13:47 4 1017 0 0 O 0 96.6 598
00:16:48 4 1017 0 0 NW 0 96.6 594
00:19:47 4 1017 0 0 W 0 96.6 594
00:22:46 4 1017 0 1 SW 0 96.6 598
00:25:48 4 1017 0 1 W 0 96.6 598
00:28:46 4 1017 0 3 SW 0 96.6 592
00:31:49 4 1017 0 0 W 0 96.6 592
00:34:46 4 1017 0 0 W 0 96.6 595
00:37:46 4 1017 0 1 S 0 96.6 592
00:40:49 4 1017 0 0 SO 0 96.6 592
00:43:48 4 1018 0 3 W 0 96.6 590
00:46:46 4 1017 0 0 W 0 96.6 580
00:49:47 4 1017 0 3 SW 0 96.6 575
00:52:45 4 1017 0 0 W 0 96.6 575
00:55:46 4 1017 0 0 W 0 96.6 579
00:58:45 4 1017 0 0 W 0 96.6 580
01:01:47 4 1017 0 1 W 0 96.6 583
01:04:46 4 1017 0 0 W 0 96.6 584
01:07:47 4 1017 0 0 S 0 96.6 575
01:10:48 4 1017 0 1 NW 0 96.6 571
01:13:47 4 1017 0 0 NW 0 96.6 568
01:16:45 4 1017 0 2 W 0 96.6 574
01:19:46 4 1017 0 2 NW 0 96.6 573
01:22:47 4 1017 0 5 W 0 96.6 570
01:25:47 4 1017 0 5 NW 0 96.6 565
01:28:46 4 1017 0 2 NW 0 96.6 574
01:31:49 4 1017 0 2 NW 0 96.6 578
01:34:48 4 1017 0 3 NW 0 96.6 581
01:37:47 4 1017 0 1 NW 0 96.6 577
01:40:47 3 1017 0 2 NW 0 96.6 572
01:43:45 3 1017 0 4 W 0 96.6 574
01:46:45 3 1017 0 2 W 0 96.6 562
01:49:46 3 1017 0 2 NW 0 96.6 565
01:52:46 3 1017 0 0 W 0 96.6 565
01:55:45 3 1017 0 3 W 0 96.6 564
01:58:47 3 1017 0 0 W 0 96.6 574
02:01:47 3 1017 0 0 W 0 96.6 571
02:04:48 3 1017 0 1 W 0 96.6 573
02:07:47 3 1017 0 0 W 0 96.6 568
02:10:45 3 1017 0 0 W 0 96.6 571
02:13:45 3 1017 0 1 W 0 96.6 567
02:16:47 3 1017 0 2 W 0 96.6 567
02:19:47 3 1017 0 0 SW 0 96.6 562
02:22:46 3 1017 0 2 W 0 96.6 559
02:25:47 3 1017 0 1 SW 0 96.6 562
02:28:45 3 1017 0 0 W 0 96.6 565
02:31:49 3 1017 0 0 S 0 96.6 562
02:34:46 3 1017 0 0 SW 0 96.6 559
02:37:45 3 1017 0 0 S 0 96.6 562
02:40:46 3 1017 0 0 SO 0 96.6 574
02:43:44 3 1017 0 1 SO 0 96.6 574
02:46:46 3 1017 0 0 S 0 96.6 571
02:49:47 3 1017 0 0 SW 0 96.6 564
02:52:45 3 1017 0 0 S 0 96.6 559
02:55:45 3 1017 0 0 S 0 96.6 562
02:58:48 3 1017 0 0 W 0 96.6 563
03:01:46 3 1017 0 0 S 0 96.6 563
03:04:45 3 1017 0 2 W 0 96.6 562
03:07:48 3 1017 0 2 0 96.6 563
03:10:47 3 1017 0 1 W 0 96.6 563
03:13:45 3 1017 0 0 W 0 96.6 571
03:16:45 3 1017 0 1 W 0 96.6 571
03:19:46 3 1017 0 1 W 0 96.6 568
03:22:48 3 1017 0 2 NW 0 96.6 564
03:25:46 3 1017 0 3 SW 0 96.6 556
03:28:47 3 1017 0 2 NW 0 96.6 556
03:31:45 3 1017 0 0 S 0 96.6 556
03:34:44 3 1017 0 5 W 0 96.6 561
03:37:47 3 1017 0 0 S 0 96.6 565
03:40:47 3 1017 0 1 SW 0 96.6 571
03:43:49 3 1017 0 2 W 0 96.6 572
03:46:47 3 1017 0 2 SW 0 96.6 574
03:49:49 3 1017 0 3 W 0 96.6 567
03:52:47 3 1017 0 3 SW 0 96.6 568
03:55:47 3 1017 0 1 W 0 96.6 563
03:58:47 3 1017 0 3 W 0 96.6 553
04:01:47 3 1017 0 4 SW 0 96.6 553
04:04:46 3 1017 0 0 SW 0 96.6 557
04:07:49 3 1017 0 1 SW 0 96.6 565
04:10:47 3 1016 0 2 N 0 96.6 556
04:13:47 3 1017 0 0 NW 0 96.6 547
04:16:48 3 1017 0 0 SW 0 96.6 548
04:19:49 3 1017 0 2 W 0 96.6 553
04:22:46 3 1017 0 1 SW 0 96.6 562
04:25:47 3 1017 0 0 SW 0 96.6 562
04:28:47 3 1017 0 0 SW 0 96.6 563
04:31:47 3 1017 0 0 W 0 96.6 553
04:34:44 3 1016 0 0 W 0 96.6 553
04:37:47 3 1017 0 2 SW 0 96.6 551
04:40:47 3 1017 0 0 NO 0 96.6 553
04:43:46 3 1017 0 0 W 0 96.6 562
04:46:46 3 1017 0 0 SW 0 96.6 559
04:49:48 3 1016 0 0 SW 0 96.6 557
04:52:48 3 1017 0 0 NO 0 96.6 556
04:55:48 3 1017 0 2 SW 0 96.6 556
04:58:48 3 1016 0 0 SW 0 96.6 557
05:01:47 3 1017 0 7 W 0 96.6 556
05:04:48 3 1017 0 2 W 0 96.6 554
05:07:48 3 1016 0 0 W 0 96.6 561
05:10:48 3 1017 0 1 W 0 96.6 560
05:13:46 3 1017 0 1 W 0 96.6 560
05:16:47 3 1016 0 0 W 0 96.6 550
05:19:46 3 1017 0 1 W 0 96.6 548
05:22:47 3 1017 0 0 SO 0 96.6 548
05:25:49 3 1017 0 0 SW 0 96.6 556
05:28:47 3 1017 0 2 NW 0 96.6 559
05:31:48 3 1017 0 1 NW 0 96.6 553
05:34:49 3 1017 0 3 NW 0 96.6 557
05:37:49 3 1017 0 3 W 0 96.6 563
05:40:47 3 1017 0 3 W 0 96.6 562
05:43:50 3 1017 0 1 NW 0 96.6 557
05:46:43 3 1017 0 0 N 0 96.6 557
05:49:47 3 1017 0 1 N 0 96.6 557
05:52:45 3 1017 0 4 N 0 96.6 557
05:55:48 3 1017 0 2 NW 0 96.6 556
05:58:45 3 1017 0 0 N 0 96.6 557
06:01:45 3 1017 0 5 N 0 96.6 550
06:04:46 3 1017 0 7 W 0 96.6 551
06:07:49 3 1016 0 3 NW 0 96.6 553
06:10:48 3 1017 0 5 NW 0 96.6 546
06:13:48 3 1017 0 2 NW 0 96.6 542
06:16:45 3 1017 0 3 N 0 96.6 541
06:19:48 3 1016 0 3 NW 0 96.6 536
06:22:48 3 1017 0 6 NW 0 96.6 544
06:25:48 3 1017 0 6 NW 0 96.6 544
06:28:46 3 1017 0 7 W 0 96.6 545
06:31:52 3 1017 0 8 NW 0 96.6 534
06:34:48 3 1017 0 3 NW 0 96.6 536
06:37:46 3 1017 0 3 NO 0 96.6 542
06:40:50 3 1017 0 10 NW 0 96.6 538
06:43:49 3 1017 0 10 NW 0 96.6 536
06:46:47 3 1017 0 6 NW 0 96.6 536
06:49:47 3 1017 0 1 N 0 96.6 530
06:52:48 3 1017 0 4 W 0 96.6 533
06:55:48 3 1017 0 8 N 0 96.6 531
06:58:48 3 1017 0 7 NW 0 96.6 527
07:01:47 3 1017 0 6 W 0 96.6 522
07:04:47 3 1016 0 4 W 0 96.6 519
07:07:44 3 1017 0 2 N 0 96.6 516
07:10:48 3 1017 0 0 NW 0 96.6 528
07:13:49 3 1017 0 1 W 0 96.6 542
07:16:47 3 1017 0 2 NW 0 96.6 562
07:19:45 3 1017 0 3 W 0 96.6 565
07:22:47 3 1017 0 0 SW 0 96.6 572
07:25:46 3 1017 0 1 W 0 96.6 585
07:28:49 3 1017 0 0 NW 0 96.6 583
07:31:46 3 1017 0 0 SW 0 96.6 589
07:34:50 3 1017 0 2 NW 0 96.6 582
07:37:50 3 1017 0 2 NW 0 96.6 586
07:40:48 3 1017 0 6 N 0 96.6 580
07:43:51 3 1017 0 6 NW 0 96.6 583
07:46:49 3 1017 0 0 W 0 96.6 586
07:49:44 3 1016 4 1 S 0 96.6 586
07:52:47 3 1017 5 2 W 0 96.6 595
07:55:45 3 1017 7 0 S 0 96.6 600
07:58:46 3 1017 9 1 W 0 96.6 604
08:01:49 3 1017 12 1 W 0 96.6 600
08:04:46 3 1017 16 0 W 0 96.6 600
08:07:50 3 1017 19 1 SW 0 96.6 603
08:10:48 2 1017 23 0 W 0 96.6 606
08:13:47 2 1017 28 0 W 0 96.6 612
08:16:46 2 1017 33 0 W 0 96.6 603
08:19:46 2 1017 38 0 S 0 96.6 612
08:22:48 2 1017 41 0 W 0 96.6 606
08:25:48 2 1017 48 0 S 0 96.6 605
08:28:47 2 1017 51 0 SW 0 96.6 549
08:31:51 2 1017 58 0 NW 0 96.6 600
08:34:46 2 1017 63 1 W 0 96.6 603
08:37:47 2 1017 69 1 S 0 96.6 613
08:40:46 2 1017 69 1 SW 0 96.6 615
08:43:46 2 1017 72 1 S 0 96.6 611
08:46:47 2 1017 79 0 NW 0 96.6 606
08:49:46 2 1017 83 1 SW 0 96.6 612
08:52:48 2 1017 86 0 S 0 96.6 620
08:55:48 2 1017 89 2 W 0 96.6 624
08:58:47 2 1017 89 0 W 0 96.6 630
09:01:47 2 1017 94 0 SO 0 96.6 627
09:04:48 2 1017 97 2 W 0 96.6 626
09:07:46 2 1017 99 2 S 0 96.6 617
09:10:49 3 1017 100 1 NW 0 96.6 622
09:13:49 3 1017 104 0 NW 0 96.6 624
09:16:47 3 1017 108 0 SW 0 96.6 624
09:19:49 3 1017 106 0 SW 0 96.6 626
09:22:50 3 1017 108 1 SW 0 96.6 636
09:25:48 3 1017 116 0 SW 0 96.6 637
09:28:49 3 1017 119 0 SW 0 96.6 639
09:31:50 3 1017 118 0 SW 0 96.6 630
09:34:48 3 1017 119 1 NW 0 96.6 638
09:37:46 3 1017 123 0 S 0 96.6 638
09:40:50 3 1017 121 0 NW 0 96.6 651
09:43:48 3 1017 122 0 S 0 96.6 648
09:46:49 3 1017 128 0 N 0 96.6 653
09:49:49 3 1017 126 0 N 0 96.6 655
09:52:48 3 1017 134 0 S 0 96.6 665
09:55:46 3 1017 134 0 N 0 96.6 665
09:58:47 3 1017 138 0 W 0 96.6 667
10:01:50 3 1017 141 1 W 0 96.6 665
10:04:48 3 1017 142 1 NW 0 96.6 665
10:07:46 3 1017 141 0 O 0 96.6 665
10:10:48 3 1017 140 0 SO 0 96.6 670
10:13:48 3 1017 146 0 SO 0 96.6 676
10:16:47 3 1017 148 0 NO 0 96.6 677
10:19:46 3 1017 151 0 N 0 96.6 680
10:22:47 3 1017 155 0 SO 0 96.6 676
10:25:49 3 1017 153 0 O 0 96.6 672
10:28:48 3 1017 156 3 SW 0 96.6 676
10:31:48 3 1017 162 1 W 0 96.6 671
10:34:48 3 1017 161 1 S 0 96.6 679
10:37:48 3 1017 157 2 S 0 96.6 677
10:40:50 3 1017 162 0 SO 0 96.6 665
10:43:47 3 1016 163 1 SO 0 96.6 665
10:46:49 3 1017 162 3 W 0 96.6 671
10:49:49 3 1017 165 0 NW 0 96.6 677
10:52:47 3 1017 165 4 SW 0 96.6 685
10:55:47 3 1017 165 0 W 0 96.6 685
10:58:48 3 1017 172 5 SO 0 96.6 692
11:01:50 3 1017 177 0 S 0 96.6 694
11:04:46 3 1017 182 0 0 96.6 682
11:07:48 3 1017 181 1 O 0 96.6 684
11:10:47 3 1017 179 0 SO 0 96.6 674
11:13:48 3 1017 175 0 SO 0 96.6 662
11:16:47 3 1017 179 0 O 0 96.6 660
11:19:46 3 1017 178 0 S 0 96.6 667
11:22:46 3 1017 183 0 W 0 96.6 668
11:25:51 3 1017 194 0 SW 0 96.6 665
11:28:48 3 1017 201 0 S 0 96.6 661
11:31:51 3 1017 200 3 SO 0 96.6 656
11:34:46 3 1017 199 2 SW 0 96.6 655
11:37:48 4 1017 212 2 S 0 96.6 653
11:40:47 4 1017 215 1 S 0 96.6 648
11:43:45 4 1017 216 4 S 0 96.6 659
11:46:47 4 1017 216 0 SO 0 96.6 671
11:49:47 4 1017 215 3 N 0 96.6 682
11:52:48 4 1017 218 0 W 0 96.6 682
11:55:45 4 1017 217 0 SW 0 96.6 685
11:58:46 4 1017 217 1 S 0 96.6 689
12:01:47 5 1017 219 5 SW 0 96.6 684
12:04:47 5 1017 218 4 O 0 96.6 682
12:07:46 5 1017 218 3 W 0 96.6 683
12:10:51 5 1017 217 0 SO 0 96.6 490
12:13:47 5 1017 218 1 SW 0 96.6 407
12:16:47 5 1017 217 3 SW 0 96.6 403
12:19:51 5 1017 218 10 NW 0 96.6 431
12:22:46 5 1017 219 3 SO 0 96.6 477
12:25:48 5 1017 221 1 NW 0 96.6 512
12:28:46 6 1017 222 4 S 0 96.6 524
12:31:47 6 1017 219 10 SW 0 96.6 521
12:34:48 6 1017 217 7 NW 0 96.4 530
12:37:47 6 1017 220 4 W 0 96.3 527
12:40:48 6 1017 208 2 SW 0 96.6 536
12:43:49 6 1017 225 2 NW 0 96.5 407
12:46:48 7 1016 223 16 W 0 95.8 404
12:49:48 7 1016 222 5 S 0 94.6 416
12:52:47 7 1017 225 8 W 0 93.7 475
12:55:50 7 1017 223 0 NW 0 92.6 483
12:58:47 7 1016 224 4 SW 0 93.5 475
13:01:49 7 1017 221 6 SW 0 93.3 462
13:04:48 7 1017 222 6 W 0 92.6 460
13:07:46 6 1017 218 4 W 0 92.5 456
13:10:47 6 1016 224 2 S 0 93.1 462
13:13:45 6 1016 225 4 SW 0 94.3 463
13:16:47 6 1016 222 9 W 0 94.2 474
13:19:46 6 1016 217 3 W 0 93.3 477
13:22:48 6 1016 213 5 SW 0 93.8 477
13:25:46 6 1016 202 2 SW 0 93.4 477
13:28:46 5 1016 199 4 W 0 93.4 483
13:31:50 5 1016 197 3 W 0 95.1 485
13:34:50 5 1016 198 1 SW 0 95.2 490
13:37:49 5 1016 210 8 W 0 94.7 489
13:40:48 5 1017 213 7 W 0 94.6 492
13:43:50 5 1016 209 3 NW 0 94.9 492
13:46:49 5 1016 208 0 SW 0 94.9 495
13:49:48 5 1016 212 2 W 0 94.7 494
13:52:47 5 1016 214 3 NW 0 95.4 507
13:55:48 5 1017 211 13 W 0 95.5 506
13:58:48 5 1016 207 8 SW 0 95.3 512
14:01:47 5 1016 205 2 SO 0 95.1 518
14:04:46 5 1016 217 0 O 0 95.4 530
14:07:48 5 1016 205 2 SW 0 95.8 530
14:10:48 5 1016 202 5 W 0 95.8 527
14:13:46 5 1016 196 4 S 0 95.2 524
14:16:48 5 1016 191 5 NW 0 95.1 530
14:19:49 5 1016 195 4 SO 0 95.5 533
14:22:49 5 1016 182 1 SW 0 95.7 536
14:25:47 5 1016 176 5 W 0 95.9 539
14:28:46 5 1016 165 1 SW 0 96.3 545
14:31:47 5 1015 162 4 SW 0 96.5 553
14:34:50 5 1016 164 2 W 0 96.6 554
14:37:48 5 1016 183 2 SW 0 96.6 564
14:40:48 5 1016 203 1 SW 0 96.6 556
14:43:49 5 1016 203 3 NW 0 96.6 566
14:46:54 5 1015 190 3 W 0 96.6 571
14:49:48 5 1015 178 0 NW 0 96.6 574
14:52:46 5 1015 175 4 SW 0 96.6 577
14:55:47 4 1016 186 2 S 0 96.6 574
14:58:46 4 1015 176 2 S 0 96.6 583
15:01:48 4 1016 179 6 W 0 96.6 588
15:04:46 4 1016 188 4 NW 0 96.6 601
15:07:49 4 1015 187 10 W 0 96.6 600
15:10:49 4 1016 179 1 NW 0 96.6 600
15:13:48 5 1016 181 3 SW 0 96.6 588
15:16:46 4 1015 171 3 S 0 96.6 586
15:19:47 4 1016 166 1 SW 0 96.6 578
15:22:50 4 1016 159 2 SW 0 96.6 573
15:25:48 4 1015 160 1 NW 0 96.6 571
15:28:49 4 1016 165 4 NW 0 96.6 583
15:31:49 4 1015 158 4 SW 0 96.6 594
15:34:48 4 1015 153 3 NW 0 96.6 603
15:37:48 4 1016 157 4 SO 0 96.6 609
15:40:48 4 1015 171 2 SW 0 96.6 606
15:43:48 4 1016 174 5 SW 0 96.6 609
15:46:45 4 1016 181 2 S 0 96.6 609
15:49:47 4 1016 170 3 NW 0 96.6 615
15:52:46 4 1016 152 4 W 0 96.6 620
15:55:48 4 1015 147 2 W 0 96.6 619
15:58:47 4 1015 138 0 SW 0 96.6 621
16:01:47 4 1016 145 2 SW 0 96.6 618
16:04:50 4 1016 141 2 SW 0 96.6 609
16:07:48 4 1016 138 2 W 0 96.6 600
16:10:50 4 1015 133 3 NW 0 96.6 603
16:13:50 4 1016 132 2 SW 0 96.6 600
16:16:47 4 1015 129 3 SW 0 96.6 609
16:19:50 4 1015 123 4 W 0 96.6 618
16:22:48 4 1016 124 3 SW 0 96.6 612
16:25:46 4 1016 120 1 W 0 96.6 571
16:28:49 4 1016 106 5 SW 0 96.6 553
16:31:48 4 1015 104 11 SW 0 96.6 556
16:34:47 4 1016 109 5 SW 0 96.6 545
16:37:48 4 1016 108 2 W 0 96.6 533
16:40:49 4 1016 102 1 SW 0 96.6 518
16:43:46 4 1016 80 1 W 0 96.6 518
16:46:47 4 1016 21 3 SW 0 96.6 510
16:49:48 4 1016 50 3 NW 0 96.6 437
16:52:47 4 1016 42 0 SW 0 96.6 430
16:55:47 4 1016 35 3 S 0 96.6 469
16:58:47 4 1016 25 1 S 0 96.6 474
17:01:50 4 1016 22 3 S 0 96.6 478
17:04:47 4 1016 16 3 W 0 96.6 491
17:07:46 4 1016 12 1 N 0 96.6 506
17:10:45 4 1016 9 4 SO 0 96.6 503
17:13:44 4 1016 6 3 W 0 96.6 497
17:16:45 3 1016 5 5 SW 0 96.6 503
17:19:45 3 1016 3 1 N 0 96.6 512
17:22:47 3 1016 0 1 SW 0 96.6 521
17:25:48 3 1016 0 1 SW 0 96.6 527
17:28:46 3 1015 0 0 O 0 96.6 525
17:31:48 3 1016 0 2 W 0 96.6 524
17:34:46 3 1016 0 0 SO 0 96.6 524
17:37:44 3 1016 0 1 W 0 96.6 530
17:40:47 3 1015 0 3 W 0 96.6 531
17:43:45 3 1016 0 0 SO 0 96.6 529
17:46:47 3 1016 0 2 SW 0 96.6 533
17:49:46 3 1016 0 4 NW 0 96.6 530
17:52:49 3 1016 0 0 SW 0 96.6 533
17:55:46 3 1016 0 0 W 0 96.6 530
17:58:50 3 1016 0 4 SW 0 96.6 542
18:01:48 3 1016 0 2 SW 0 96.6 542
18:04:47 3 1016 0 1 W 0 96.6 548
18:07:47 3 1016 0 2 W 0 96.6 545
18:10:45 3 1017 0 1 N 0 96.6 554
18:13:48 3 1016 0 1 SW 0 96.6 557
18:16:46 3 1016 0 3 W 0 96.6 559
18:19:48 3 1016 0 1 SW 0 96.6 559
18:22:44 3 1016 0 1 S 0 96.6 557
18:25:49 3 1016 0 2 SW 0 96.6 562
18:28:45 3 1016 0 3 W 0 96.6 562
18:31:46 3 1015 0 2 SW 0 96.6 550
18:34:47 3 1016 0 1 SW 0 96.6 550
18:37:47 3 1016 0 3 SW 0 96.6 548
18:40:47 3 1016 0 0 W 0 96.6 559
18:43:50 3 1016 0 1 SW 0 96.6 566
18:46:47 3 1016 0 1 SW 0 96.6 569
18:49:49 3 1016 0 2 SW 0 96.6 570
18:52:46 3 1016 0 1 W 0 96.6 559
18:55:48 3 1016 0 2 SW 0 96.6 551
18:58:47 3 1016 0 5 SW 0 96.6 549
19:01:46 3 1016 0 1 SW 0 96.6 545
19:04:46 3 1015 0 2 W 0 96.6 547
19:07:46 3 1015 0 1 NW 0 96.6 553
19:10:48 3 1017 0 0 SW 0 96.6 551
19:13:45 3 1016 0 1 W 0 96.6 559
19:16:46 3 1016 0 1 SW 0 96.6 565
19:19:46 3 1016 0 2 W 0 96.6 571
19:22:48 3 1015 0 3 W 0 96.6 578
19:25:45 3 1016 0 3 S 0 96.6 577
19:28:46 3 1015 0 4 SW 0 96.6 578
19:31:48 3 1016 0 1 SW 0 96.6 577
19:34:46 3 1016 0 1 NW 0 96.6 583
19:37:49 3 1017 0 0 W 0 96.6 583
19:40:47 3 1016 0 1 SW 0 96.6 592
19:43:48 3 1015 0 1 SW 0 96.6 592
19:46:45 3 1016 0 2 SW 0 96.6 597
19:49:47 3 1015 0 0 S 0 96.6 592
19:52:48 3 1016 0 2 SW 0 96.6 579
19:55:48 3 1016 0 0 SO 0 96.6 583
19:58:48 3 1016 0 1 W 0 96.6 582
20:01:49 3 1016 0 1 NW 0 96.6 586
20:04:46 3 1015 0 0 S 0 96.6 582
20:07:48 3 1017 0 1 SW 0 96.6 586
20:10:46 3 1015 0 1 W 0 96.6 588
20:13:48 3 1017 0 3 SO 0 96.6 589
20:16:48 3 1016 0 1 SW 0 96.6 594
20:19:46 3 1016 0 3 W 0 96.6 592
20:22:47 3 1016 0 2 W 0 96.6 597
20:25:48 3 1015 0 2 S 0 96.6 600
20:28:51 3 1016 0 0 SW 0 96.6 607
20:31:49 3 1016 0 1 SW 0 96.6 600
20:34:50 3 1015 0 0 SW 0 96.6 600
20:37:48 3 1015 0 0 W 0 96.6 608
20:40:47 3 1015 0 0 SW 0 96.6 612
20:43:47 3 1017 0 2 S 0 96.6 606
20:46:49 3 1016 0 0 SW 0 96.6 606
20:49:48 3 1016 0 0 NO 0 96.6 603
20:52:49 3 1016 0 1 SW 0 96.6 601
20:55:48 3 1016 0 3 SW 0.2575 96.6 601
20:58:49 3 1015 0 0 SW 0 96.6 599
21:01:48 3 1016 0 0 S 0 96.6 592
21:04:46 3 1016 0 0 O 0 96.6 586
21:07:46 3 1016 0 0 SW 0 96.6 578
21:10:48 3 1015 0 0 SW 0 96.6 525
21:13:47 3 1016 0 0 S 0 96.6 536
21:16:47 3 1016 0 0 SW 0 96.6 538
21:19:47 3 1017 0 0 SW 0 96.6 539
21:22:48 3 1016 0 0 SO 0 96.6 531
21:25:47 3 1015 0 0 SW 0 96.6 534
21:28:48 3 1016 0 0 SW 0 96.6 533
21:31:46 3 1016 0 0 SW 0 96.6 545
21:34:48 3 1015 0 0 SW 0 96.6 536
21:37:47 3 1015 0 0 SW 0 96.6 517
21:40:46 3 1016 0 0 SW 0 96.6 524
21:43:47 3 1015 0 0 SO 0 96.6 524
21:46:48 2 1015 0 0 S 0 96.6 531
21:49:46 2 1015 0 0 S 0 96.6 536
21:52:47 2 1015 0 1 S 0 96.6 537
21:55:47 2 1015 0 0 SW 0 96.6 547
21:58:46 2 1016 0 0 S 0 96.6 539
22:01:45 2 1014 0 0 SW 0 96.6 538
22:04:49 2 1016 0 2 NW 0 96.6 533
22:07:46 2 1016 0 0 S 0 96.6 534
22:10:46 2 1015 0 0 O 0 96.6 530
22:13:46 2 1015 0 0 SO 0 96.6 530
22:16:45 2 1015 0 0 S 0 96.6 538
22:19:46 2 1015 0 0 SW 0 96.6 545
22:22:48 2 1015 0 2 SO 0 96.6 547
22:25:47 2 1015 0 0 S 0 96.6 548
22:28:45 2 1015 0 1 O 0 96.6 554
22:31:48 2 1015 0 0 O 0 96.6 553
22:34:47 2 1015 0 0 O 0 96.6 548
22:37:48 2 1015 0 0 SO 0 96.6 548
22:40:47 2 1015 0 1 NW 0 96.6 548
22:43:46 2 1016 0 0 SO 0 96.6 550
22:46:46 2 1016 0 0 S 0 96.6 554
22:49:48 2 1016 0 0 SO 0 96.6 556
22:52:47 2 1015 0 1 W 0 96.6 554
22:55:47 2 1015 0 0 S 0 96.6 556
22:58:46 2 1015 0 0 N 0 96.6 560
23:01:45 2 1014 0 1 SW 0 96.6 562
23:04:46 2 1015 0 1 SW 0 96.6 553
23:07:45 2 1015 0 0 W 0 96.6 544
23:10:47 2 1016 0 1 SW 0 96.6 551
23:13:45 2 1015 0 0 SW 0 96.6 550
23:16:46 2 1016 0 0 S 0 96.6 559
23:19:46 2 1015 0 0 SW 0 96.6 559
23:22:46 2 1015 0 0 S 0 96.6 560
23:25:47 2 1016 0 0 SW 0 96.6 550
23:28:49 2 1015 0 1 SW 0 96.6 549
23:31:46 2 1014 0 0 SW 0 96.6 533
23:34:46 2 1015 0 0 SW 0 96.6 530
23:37:47 2 1015 0 1 W 0 96.6 525
23:40:46 2 1014 0 0 W 0 96.6 514
23:43:46 2 1015 0 0 S 0 96.6 518
23:46:47 2 1015 0 1 NW 0 96.6 527
23:49:46 2 1015 0 0 N 0 96.6 530
23:52:47 2 1015 0 0 S 0 96.6 526
23:55:48 2 1015 0 0 S 0 96.6 525
23:58:47 2 1015 0 1 W 0 96.6 522

Letzte Änderung : 04-Jan-2022
Copyright Jens Köhler, Wolfsburg, Obere Dorfstraße 10d